sat.trackr.live / text

‹ back to catalog

STARLINK-4051

NORAD 53273 · 2022-086AH

PAYLOAD ACTIVE UNKNOWN

§ Identity

Operator
Country
US
Launch date
2022-07-24
Launch site
AFETR
Launch vehicle
Mass (kg)
RCS (m²)

Purposes: comms

External: N2YO · Heavens-Above · Gunter

§ Orbital elements

Epoch: 2026-09-19T23:24:20.207232Z

Period
93.85 min
Inclination
53.1616°
Eccentricity
0.0001529
Mean motion
15.34396547 rev/d
Perigee alt
461.7 km
Apogee alt
463.8 km
Semi-major
6,840.9 km
B*
-6.1171e-5
RAAN
16.5287°
Arg perigee
138.6306°
Mean anomaly
221.4812°
Rev number
23,073

§ Raw data

STARLINK-40511 53273U 22086AH  26262.97523388 -.00002442  00000+0 -61171-4 0  99942 53273  53.1616  16.5287 0001529 138.6306 221.4812 15.34396547230739

JSON: /api/v1/satellites/53273 · /tle

For live sub-satellite position, see the globe view (requires WebGL).

§ Visibility from observer

Set your observer location to see the next 7 days of passes ≥ 10°. The values pass through the URL so the page stays shareable.

No JS? Fill the form by hand. The geolocation button needs JavaScript.